Location: Choisy
(48.7685°N, 2.4187°E)
Time: 18:10:28
(UTC+00:00)

Envisat - Pass Details

Date: 06 March 2024
Orbit: 762 x 764 km, 98.3° (Epoch: 23 April)

Event Time Altitude Azimuth Distance (km) Brightness Sun altitude
Rises 02:12:32 0° 25° (NNE) 3,242 7.1 -38.6°
Reaches altitude 10° 02:15:22 10° 41° (NE) 2,310 6.2 -38.3°
Enters shadow 02:18:16 20° 75° (ENE) 1,695 5.2 -38.0°
